DW9106 Madrid ES current weather conditions

sailwx.info

Wind from 252 at 0 knots gusting 7

Air temperature 9.4° C
Dewpoint 6.5° C

Last reported at 2015-Apr-27 02:41 UTC.
Time now 2015-Apr-27 04:05 UTC

Location: N 40°23' W 003°38'.
View on Google Maps.

See reports from other nearby stations

  
Tides and Currents Weather Stations Pressure Air Temp Water Temp Dewpoint Dewpoint Depression Visibility Wind Speed Wind Dir Waves Ship Positions
date/time (UTC)wind fromknots sea level pressurealtimeterstation pressurevisibilityair tempwater tempwave heightnotes
2015-Apr-27 03:41 237 1 gusting 7 8.9
2015-Apr-27 03:26 253 1 gusting 6 8.9
2015-Apr-27 03:11 254 2 gusting 6 8.9
2015-Apr-27 02:56 215 8.9
2015-Apr-27 02:41 252 0 gusting 7 9.4
2015-Apr-27 02:26 257 2 gusting 6 9.4
2015-Apr-27 02:11 251 2 gusting 9 9.4
2015-Apr-27 01:56 238 2 gusting 6 9.4
2015-Apr-27 01:41 281 4 gusting 8 9.4
2015-Apr-27 01:26 268 2 gusting 6 9.4
2015-Apr-27 01:11 313 1 gusting 7 9.4
2015-Apr-27 00:56 256 1 gusting 9 10.0
2015-Apr-27 00:41 277 1 gusting 8 10.0
2015-Apr-27 00:26 227 3 gusting 9 10.0
2015-Apr-27 00:11 219 2 gusting 5 10.0
2015-Apr-26 23:56 221 2 gusting 9 10.0
2015-Apr-26 23:41 249 2 gusting 10 10.0
2015-Apr-26 23:26 267 1 gusting 7 10.0
2015-Apr-26 23:11 190 3 gusting 10 10.0
2015-Apr-26 22:56 250 3 gusting 7 10.0
2015-Apr-26 22:41 237 4 gusting 10 10.0
2015-Apr-26 22:26 251 2 gusting 6 9.4
2015-Apr-26 22:11 277 4 gusting 9 9.4
2015-Apr-26 21:56 242 3 gusting 8 9.4
2015-Apr-26 21:41 257 0 gusting 3 9.4
2015-Apr-26 21:26 311 0 gusting 7 9.4
2015-Apr-26 21:11 263 1 gusting 7 9.4
2015-Apr-26 20:56 219 1 gusting 6 9.4
2015-Apr-26 20:41 257 2 gusting 7 10.0
2015-Apr-26 20:26 275 2 gusting 7 10.0
2015-Apr-26 20:11 251 2 gusting 11 10.0
2015-Apr-26 19:56 031 3 gusting 8 10.0
2015-Apr-26 19:41 200 2 gusting 13 10.0
2015-Apr-26 19:26 259 1 gusting 6 10.0
2015-Apr-26 19:11 248 1 gusting 8 10.0
2015-Apr-26 18:56 228 0 gusting 2 10.0
2015-Apr-26 18:41 201 10.0
2015-Apr-26 18:26 177 1 gusting 5 10.0
2015-Apr-26 18:11 064 10.0
2015-Apr-26 17:56 064 9.4
2015-Apr-26 17:41 071 9.4
2015-Apr-26 17:26 271 8.9
2015-Apr-26 17:11 265 0 gusting 7 8.9
2015-Apr-26 16:56 283 6 gusting 14 9.4
2015-Apr-26 16:41 246 5 gusting 19 10.6
2015-Apr-26 16:26 276 5 gusting 11 14.4
2015-Apr-26 16:10 306 4 gusting 13 14.4
2015-Apr-26 15:55 254 3 gusting 10 15.0
2015-Apr-26 15:40 187 5 gusting 11 15.6
2015-Apr-26 15:25 270 3 gusting 10 15.6
2015-Apr-26 15:10 250 4 gusting 9 15.0
2015-Apr-26 14:55 263 3 gusting 10 15.0
2015-Apr-26 14:40 273 4 gusting 10 13.9
2015-Apr-26 14:25 265 13.3
2015-Apr-26 14:10 277 2 gusting 6 12.8
2015-Apr-26 13:55 213 0 gusting 4 12.2
2015-Apr-26 13:40 107 11.7
2015-Apr-26 13:25 108 0 gusting 5 10.6
2015-Apr-26 13:10 057 0 gusting 6 10.0
2015-Apr-26 12:55 240 1 gusting 5 10.0
2015-Apr-26 12:40 275 2 gusting 19 10.0
2015-Apr-26 12:25 147 7 gusting 18 10.0
2015-Apr-26 12:10 327 6 gusting 13 10.6
2015-Apr-26 11:55 260 4 gusting 14 10.6
2015-Apr-26 11:40 280 4 gusting 19 10.6
2015-Apr-26 11:25 259 2 gusting 5 11.7
2015-Apr-26 11:10 038 1 gusting 9 11.7
2015-Apr-26 10:55 271 2 gusting 11 11.7
2015-Apr-26 10:40 252 1 gusting 10 11.7
2015-Apr-26 10:25 280 3 gusting 11 11.7
2015-Apr-26 10:10 219 3 gusting 10 12.2
2015-Apr-26 09:55 277 1 gusting 7 12.2
2015-Apr-26 09:40 225 3 gusting 9 11.7
2015-Apr-26 09:25 122 2 gusting 7 11.7
2015-Apr-26 09:10 192 0 gusting 3 11.7
2015-Apr-26 08:55 182 1 gusting 5 11.7
2015-Apr-26 08:40 188 1 gusting 6 11.7
2015-Apr-26 08:25 217 1 gusting 6 11.7
2015-Apr-26 08:09 260 1 gusting 6 11.7
2015-Apr-26 07:54 244 0 gusting 5 11.7
2015-Apr-26 07:39 259 1 gusting 6 11.1
2015-Apr-26 07:24 258 1 gusting 4 11.1
2015-Apr-26 07:09 192 1 gusting 3 11.1
2015-Apr-26 06:54 242 0 gusting 3 11.1
2015-Apr-26 06:39 240 1 gusting 5 11.1
2015-Apr-26 06:24 217 0 gusting 3 11.1
2015-Apr-26 06:09 123 0 gusting 4 11.1
2015-Apr-26 05:54 202 1 gusting 5 11.1
2015-Apr-26 05:39 256 0 gusting 3 11.1
2015-Apr-26 05:24 234 0 gusting 3 11.1
2015-Apr-26 05:09 209 11.1
2015-Apr-26 04:54 225 11.1
2015-Apr-26 04:39 213 0 gusting 3 11.1
2015-Apr-26 04:24 194 0 gusting 5 11.1
2015-Apr-26 04:09 212 0 gusting 3 11.1
2015-Apr-26 03:54 153 1 gusting 5 11.1
2015-Apr-26 03:39 225 11.1
2015-Apr-26 03:24 215 1 gusting 4 11.1
2015-Apr-26 03:09 253 0 gusting 3 11.1
2015-Apr-26 02:54 304 1 gusting 4 11.1
2015-Apr-26 02:39 250 0 gusting 3 11.1
2015-Apr-26 02:24 294 11.1
2015-Apr-26 02:09 198 11.7
2015-Apr-26 01:54 175 0 gusting 1 11.7
2015-Apr-26 01:39 207 11.7
2015-Apr-26 01:24 167 0 gusting 3 11.7
2015-Apr-26 01:09 203 1 gusting 4 11.7
2015-Apr-26 00:54 161 0 gusting 5 11.7
2015-Apr-26 00:39 174 11.7
2015-Apr-26 00:24 174 11.7
2015-Apr-26 00:09 173 11.7
2015-Apr-25 23:54 180 11.7
2015-Apr-25 23:39 181 0 gusting 2 11.7
2015-Apr-25 23:24 175 0 gusting 3 12.2
2015-Apr-25 23:09 175 0 gusting 4 12.2
2015-Apr-25 22:54 199 12.2
2015-Apr-25 22:39 199 11.7
2015-Apr-25 22:24 207 11.7
2015-Apr-25 22:09 207 12.2
2015-Apr-25 21:54 172 1 gusting 4 12.2
2015-Apr-25 21:38 182 0 gusting 3 12.8
2015-Apr-25 21:23 182 0 gusting 3 12.8
2015-Apr-25 21:08 223 0 gusting 5 13.3
2015-Apr-25 20:53 184 0 gusting 3 13.3
2015-Apr-25 20:38 263 13.3
2015-Apr-25 20:23 263 13.3
2015-Apr-25 20:08 198 13.3
2015-Apr-25 19:53 252 1 gusting 5 13.3
2015-Apr-25 19:38 306 2 gusting 6 13.3
2015-Apr-25 19:23 261 13.3
2015-Apr-25 19:08 262 2 gusting 8 13.3
2015-Apr-25 18:53 338 3 gusting 11 13.9
2015-Apr-25 18:38 244 4 gusting 13 15.6
2015-Apr-25 18:23 250 2 gusting 7 16.1
2015-Apr-25 18:08 215 2 gusting 6 16.1
2015-Apr-25 17:53 153 2 gusting 8 16.7
2015-Apr-25 17:38 140 3 gusting 9 16.7
2015-Apr-25 17:23 226 4 gusting 13 16.7
2015-Apr-25 17:08 153 5 gusting 11 17.2
2015-Apr-25 16:53 217 3 gusting 9 17.2
2015-Apr-25 16:38 291 3 gusting 11 17.2
2015-Apr-25 16:23 200 1 gusting 9 17.2
2015-Apr-25 16:08 171 4 gusting 11 17.2
2015-Apr-25 15:53 258 3 gusting 9 17.2
2015-Apr-25 15:38 167 4 gusting 9 17.2
2015-Apr-25 15:23 219 2 gusting 12 17.2
2015-Apr-25 15:08 248 4 gusting 14 17.2
2015-Apr-25 14:53 051 4 gusting 15 17.8
2015-Apr-25 14:38 148 5 gusting 12 17.8
2015-Apr-25 14:23 267 3 gusting 13 18.3
2015-Apr-25 14:08 188 4 gusting 13 18.3
2015-Apr-25 13:53 261 5 gusting 10 18.9
2015-Apr-25 13:38 240 3 gusting 13 17.8
2015-Apr-25 13:23 213 4 gusting 9 17.2
2015-Apr-25 13:08 259 2 gusting 11 17.8
2015-Apr-25 12:53 223 3 gusting 10 17.8
2015-Apr-25 12:38 261 3 gusting 11 18.3
2015-Apr-25 12:23 143 3 gusting 12 17.2
2015-Apr-25 12:08 171 4 gusting 9 16.7
2015-Apr-25 11:53 259 4 gusting 14 16.7
2015-Apr-25 11:38 250 4 gusting 11 16.7
2015-Apr-25 11:23 238 5 gusting 10 16.7
2015-Apr-25 11:08 189 3 gusting 11 16.7
2015-Apr-25 10:53 284 2 gusting 7 16.7
2015-Apr-25 10:38 116 3 gusting 6 16.7
2015-Apr-25 10:23 158 3 gusting 8 16.1
2015-Apr-25 10:08 193 2 gusting 8 15.6
2015-Apr-25 09:53 130 0 gusting 6 15.0
2015-Apr-25 09:38 261 0 gusting 6 15.0
2015-Apr-25 09:23 187 2 gusting 8 14.4
2015-Apr-25 09:08 234 2 gusting 6 13.9
2015-Apr-25 08:53 254 2 gusting 8 13.3
2015-Apr-25 08:38 244 4 gusting 11 13.3
2015-Apr-25 08:23 302 3 gusting 13 12.8
2015-Apr-25 08:08 227 2 gusting 9 12.8
2015-Apr-25 07:53 180 2 gusting 7 12.2
2015-Apr-25 07:38 227 2 gusting 6 12.2
2015-Apr-25 07:22 242 3 gusting 12 11.7
2015-Apr-25 07:07 260 1 gusting 6 11.7
2015-Apr-25 06:52 267 1 gusting 7 11.7
2015-Apr-25 06:37 254 3 gusting 8 11.1
2015-Apr-25 06:22 254 2 gusting 6 11.1
2015-Apr-25 06:07 270 3 gusting 9 11.1
2015-Apr-25 05:52 224 0 gusting 6 11.1
2015-Apr-25 05:37 264 1 gusting 6 11.1
2015-Apr-25 05:22 261 4 gusting 8 11.1
2015-Apr-25 05:07 213 2 gusting 10 11.1
2015-Apr-25 04:52 292 2 gusting 6 11.1
2015-Apr-25 04:37 272 1 gusting 7 11.1
2015-Apr-25 04:22 281 1 gusting 6 11.1
2015-Apr-25 04:07 242 0 gusting 6 11.7